Location: Chèvreville
(49.1099°N, 2.8495°E)
Time: 11:56:05
(UTC+00:00)

VELOX 1 - Visible Passes

Search period start: 08 December 2023 00:00
Search period end: 18 December 2023 00:00
Orbit: 610 x 625 km, 98.4° (Epoch: 08 December)

Date Brightness Start Highest point End Pass type
(mag) Time Alt. Az. Time Alt. Az. Time Alt. Az.
08 Dec ? 04:33:12 10° ENE 04:34:36 11° NE 04:36:02 10° NE visible
08 Dec ? 06:05:37 10° SSE 06:09:53 79° ENE 06:14:12 10° NNW visible
09 Dec ? 04:48:24 10° E 04:50:57 16° ENE 04:53:30 10° NNE visible
09 Dec ? 06:22:11 10° S 06:26:27 72° WSW 06:30:45 10° NNW visible
10 Dec ? 05:04:06 10° ESE 05:07:19 21° ENE 05:10:33 10° NNE visible
10 Dec ? 06:38:54 10° S 06:43:02 49° W 06:47:13 10° NNW visible
11 Dec ? 05:20:03 10° SE 05:23:43 29° ENE 05:27:25 10° N visible
11 Dec ? 06:55:46 10° SSW 06:59:39 34° W 07:03:35 10° NNW visible
12 Dec ? 05:36:10 10° SE 05:40:09 40° ENE 05:44:11 10° N visible
13 Dec ? 05:52:26 10° SSE 05:56:37 57° ENE 06:00:51 10° N visible
14 Dec ? 04:36:13 10° ENE 04:37:49 12° NE 04:39:25 10° NNE visible
14 Dec ? 06:08:50 10° SSE 06:13:07 82° ENE 06:17:26 10° NNW visible
15 Dec ? 04:51:29 10° E 04:54:07 16° ENE 04:56:46 10° NNE visible
15 Dec ? 06:25:23 10° S 06:29:38 69° WSW 06:33:56 10° NNW visible
16 Dec ? 05:07:11 10° ESE 05:10:27 22° ENE 05:13:44 10° NNE visible
16 Dec ? 06:42:04 10° S 06:46:11 47° W 06:50:22 10° NNW visible
17 Dec ? 05:23:06 10° SE 05:26:49 30° ENE 05:30:34 10° N visible
17 Dec ? 06:58:55 10° SSW 07:02:46 33° W 07:06:40 10° NNW visible
